Powrót do katalogu

STARLINK-37387

AktywnyŁącznośćVLEO
NORAD 68973·PAYLOAD·🇺🇸 United States

Wystrzelony May 1, 2026 z Cape Canaveral Space Force Station

Loading…

Następne Przeloty (najbliższe 24 godziny)

TLE

ŚwieżeSource: CelesTrak SupGP

Epoka: Sep 14, 2026, 23:18 UTC

1 68973C 26099Y   26257.97131944  .00001995  00000+0  58963-4 0  2574
2 68973  53.1574 101.2244 0001294  85.5218 200.0348 15.34381146    13

Śledź STARLINK-37387 w czasie rzeczywistym z AllMySat

Download on the App Store